STARLINK-1671 (46554 NORAD) Tracking and Keplerian Element Data

This shows tracking and keplerian element data for the satellite.

Feedback or suggestion? Click here.




ElementValue
Catalog46554
NameSTARLINK-1671
Epoch Orbit187
Epoch Day336.91667824
Epoch Year2020
RAAN165.2641
Inclination53.0005
Eccentricity0.0002335
Argument of Perigee31.935
Mean Anonmoly354.7322
Mean Motion15.62764525
Decay Rate-0.00039597
L11 46554U 20070Y 20336.91667824 -.00039597 00000-0 -42844-3 0 9990
L22 46554 53.0005 165.2641 0002335 31.9350 354.7322 15.62764525 1873

Live tracking and technical data element details for STARLINK-1671 (NORAD 46554). STARLINK-1671 can be tracked NOW for your location showing map with azimuth and elevation plus other details from your city location.

Track the satellite on the map from your city or location and see movement details for azimuth, elevation, latitude, longitude, range, height, and movement on the map or in text.







IsCatalogInMostPopularTable: catalog: 46554, numindb: 15
Update: records affected: 1



GetName: 46554 STARLINK-1671

Hit Count: updated at: Wed, 02 Dec 2020 18:11:01 GMT